7 * 24
多渠道服务支持
YAOGAN-30 AB(遥感三十号AB星)是中国研制发射的遥感卫星,于北京时间2021年6月18日发射升空,顺利进入预定轨道。该星属于遥感三十号低轨卫星星座,由中科院微小卫星创新研究院抓总研制,主要用于开展电磁环境探测及相关技术试验,入轨后完善了星座组网能力,推动我国低轨遥感星座建设进一步完善,任务取得圆满成功。
中国
(CN)
| 数据来源 | 国际轨道数据 | AOE轨道数据 |
| 星历时间 | 2026-09-04T04:07:58+0800 13小时前 查看轨道信息 | 2026-08-28T23:00:00+0800 6天前 查看轨道信息 |
| 半长轴 | 6935.729km | 6935.82km |
| 偏心率 | 0.0003559 | 0.0004308 |
| 轨道倾角 | 34.996° | 34.995° |
| 近地点辐角 | 36.906° | 341.856° |
| 升交点赤经 | 32.382° | 70.277° |
| 平近点角 | 323.190° | 181.602° |
| 近地点 | 555.123km | 554.695km |
| 远地点 | 560.061km | 560.671km |
| 周期 | 95.807分钟 | 95.809分钟 |
| 每日圈数 | 15.030195 | 15.0299 |